Location: Home
(42.5358°N, 72.7383°W)
Time: 12:42:26
(UTC-05:00)

Transit 4A - Pass Details

Date: 30 November 2021
Orbit: 864 x 981 km, 66.8° (Epoch: 19 January)

Event Time Altitude Azimuth Distance (km) Brightness Sun altitude
Rises 17:54:56 0° 148° (SSE) 3,441 10.7 -17.2°
Enters shadow 17:57:00 - 135° (SE) 2,943 10.2 -17.6°
Reaches altitude 10° 18:00:03 10° 109° (ESE) 2,533 - -18.1°
Maximum altitude 18:00:57 10° 100° (E) 2,514 - -18.3°
Drops below altitude 10° 18:01:50 10° 91° (E) 2,545 - -18.4°
Sets 18:07:02 0° 52° (NE) 3,525 - -19.4°
